date,time,water_lv
2018-09-01,00:00:00,203.28
2018-09-01,00:10:00,203.28
2018-09-01,00:20:00,203.27
2018-09-01,00:30:00,203.27
2018-09-01,00:40:00,203.26
2018-09-01,00:50:00,203.26
2018-09-01,01:00:00,203.26
2018-09-01,01:10:00,203.26
2018-09-01,01:20:00,203.25
2018-09-01,01:30:00,203.25
2018-09-01,01:40:00,203.24
2018-09-01,01:50:00,203.24
2018-09-01,02:00:00,203.24
2018-09-01,02:10:00,203.23
2018-09-01,02:20:00,203.23
2018-09-01,02:30:00,203.23
2018-09-01,02:40:00,203.22
2018-09-01,02:50:00,203.22
2018-09-01,03:00:00,203.21
2018-09-01,03:10:00,203.21
2018-09-01,03:20:00,203.21
2018-09-01,03:30:00,203.2
2018-09-01,03:40:00,203.2
2018-09-01,03:50:00,203.2
2018-09-01,04:00:00,203.19
2018-09-01,04:10:00,203.19
2018-09-01,04:20:00,203.19
2018-09-01,04:30:00,203.18
2018-09-01,04:40:00,203.18
2018-09-01,04:50:00,203.18
2018-09-01,05:00:00,203.17
2018-09-01,05:10:00,203.17
2018-09-01,05:20:00,203.17
2018-09-01,05:30:00,203.17
2018-09-01,05:40:00,203.16
2018-09-01,05:50:00,203.16
2018-09-01,06:00:00,203.15
2018-09-01,06:10:00,203.15
2018-09-01,06:20:00,203.15
2018-09-01,06:30:00,203.15
2018-09-01,06:40:00,203.14
2018-09-01,06:50:00,203.14
2018-09-01,07:00:00,203.14
2018-09-01,07:10:00,203.14
2018-09-01,07:20:00,203.13
2018-09-01,07:30:00,203.13
2018-09-01,07:40:00,203.13
2018-09-01,07:50:00,203.12
2018-09-01,08:00:00,203.12
2018-09-01,08:10:00,203.12
2018-09-01,08:20:00,203.11
2018-09-01,08:30:00,203.11
2018-09-01,08:40:00,203.11
2018-09-01,08:50:00,203.11
2018-09-01,09:00:00,203.1
2018-09-01,09:10:00,203.1
2018-09-01,09:20:00,203.1
2018-09-01,09:30:00,203.09
2018-09-01,09:40:00,203.09
2018-09-01,09:50:00,203.09
2018-09-01,10:00:00,203.09
2018-09-01,10:10:00,203.08
2018-09-01,10:20:00,203.08
2018-09-01,10:30:00,203.08
2018-09-01,10:40:00,203.07
2018-09-01,10:50:00,203.07
2018-09-01,11:00:00,203.07
2018-09-01,11:10:00,203.07
2018-09-01,11:20:00,203.06
2018-09-01,11:30:00,203.06
2018-09-01,11:40:00,203.06
2018-09-01,11:50:00,203.05
2018-09-01,12:00:00,203.05
2018-09-01,12:10:00,203.05
2018-09-01,12:20:00,203.05
2018-09-01,12:30:00,203.05
2018-09-01,12:40:00,203.04
2018-09-01,12:50:00,203.04
2018-09-01,13:00:00,203.04
2018-09-01,13:10:00,203.03
2018-09-01,13:20:00,203.03
2018-09-01,13:30:00,203.03
2018-09-01,13:40:00,203.03
2018-09-01,13:50:00,203.02
2018-09-01,14:00:00,203.02
2018-09-01,14:10:00,203.02
2018-09-01,14:20:00,203.01
2018-09-01,14:30:00,203.01
2018-09-01,14:40:00,203.01
2018-09-01,14:50:00,203
2018-09-01,15:00:00,203
2018-09-01,15:10:00,203
2018-09-01,15:20:00,202.99
2018-09-01,15:30:00,-
2018-09-01,15:40:00,202.99
2018-09-01,15:50:00,202.99
2018-09-01,16:00:00,202.98
2018-09-01,16:10:00,202.98
2018-09-01,16:20:00,202.98
2018-09-01,16:30:00,202.98
2018-09-01,16:40:00,202.97
2018-09-01,16:50:00,202.97
2018-09-01,17:00:00,202.97
2018-09-01,17:10:00,202.96
2018-09-01,17:20:00,202.96
2018-09-01,17:30:00,202.96
2018-09-01,17:40:00,202.95
2018-09-01,17:50:00,202.95
2018-09-01,18:00:00,202.95
2018-09-01,18:10:00,202.94
2018-09-01,18:20:00,202.94
2018-09-01,18:30:00,202.94
2018-09-01,18:40:00,202.94
2018-09-01,18:50:00,202.93
2018-09-01,19:00:00,202.93
2018-09-01,19:10:00,202.93
2018-09-01,19:20:00,202.92
2018-09-01,19:30:00,202.92
2018-09-01,19:40:00,202.92
2018-09-01,19:50:00,202.91
2018-09-01,20:00:00,202.91
2018-09-01,20:10:00,202.91
2018-09-01,20:20:00,202.91
2018-09-01,20:30:00,202.9
2018-09-01,20:40:00,202.9
2018-09-01,20:50:00,202.9
2018-09-01,21:00:00,202.89
2018-09-01,21:10:00,202.89
2018-09-01,21:20:00,202.89
2018-09-01,21:30:00,202.88
2018-09-01,21:40:00,202.88
2018-09-01,21:50:00,202.88
2018-09-01,22:00:00,202.88
2018-09-01,22:10:00,202.88
2018-09-01,22:20:00,202.87
2018-09-01,22:30:00,202.87
2018-09-01,22:40:00,202.87
2018-09-01,22:50:00,202.86
2018-09-01,23:00:00,202.86
2018-09-01,23:10:00,202.86
2018-09-01,23:20:00,202.86
2018-09-01,23:30:00,202.85
2018-09-01,23:40:00,202.85
2018-09-01,23:50:00,202.85
2018-09-02,00:00:00,202.85
2018-09-02,00:10:00,202.84
2018-09-02,00:20:00,202.84
2018-09-02,00:30:00,202.84
2018-09-02,00:40:00,202.84
2018-09-02,00:50:00,202.83
2018-09-02,01:00:00,202.83
2018-09-02,01:10:00,202.83
2018-09-02,01:20:00,202.82
2018-09-02,01:30:00,202.82
2018-09-02,01:40:00,202.82
2018-09-02,01:50:00,202.82
2018-09-02,02:00:00,202.81
2018-09-02,02:10:00,202.81
2018-09-02,02:20:00,202.81
2018-09-02,02:30:00,202.81
2018-09-02,02:40:00,202.8
2018-09-02,02:50:00,202.8
2018-09-02,03:00:00,202.8
2018-09-02,03:10:00,202.79
2018-09-02,03:20:00,202.79
2018-09-02,03:30:00,202.79
2018-09-02,03:40:00,202.79
2018-09-02,03:50:00,202.79
2018-09-02,04:00:00,202.78
2018-09-02,04:10:00,202.78
2018-09-02,04:20:00,202.78
2018-09-02,04:30:00,202.78
2018-09-02,04:40:00,202.77
2018-09-02,04:50:00,202.77
2018-09-02,05:00:00,202.77
2018-09-02,05:10:00,202.76
2018-09-02,05:20:00,202.76
2018-09-02,05:30:00,202.76
2018-09-02,05:40:00,202.76
2018-09-02,05:50:00,202.75
2018-09-02,06:00:00,202.75
2018-09-02,06:10:00,202.75
2018-09-02,06:20:00,202.74
2018-09-02,06:30:00,202.74
2018-09-02,06:40:00,202.74
2018-09-02,06:50:00,202.73
2018-09-02,07:00:00,202.74
2018-09-02,07:10:00,202.73
2018-09-02,07:20:00,202.73
2018-09-02,07:30:00,202.73
2018-09-02,07:40:00,202.72
2018-09-02,07:50:00,202.72
2018-09-02,08:00:00,202.72
2018-09-02,08:10:00,202.71
2018-09-02,08:20:00,202.71
2018-09-02,08:30:00,202.71
2018-09-02,08:40:00,202.71
2018-09-02,08:50:00,202.7
2018-09-02,09:00:00,202.7
2018-09-02,09:10:00,202.7
2018-09-02,09:20:00,202.69
2018-09-02,09:30:00,202.69
2018-09-02,09:40:00,202.69
2018-09-02,09:50:00,202.69
2018-09-02,10:00:00,202.68
2018-09-02,10:10:00,202.68
2018-09-02,10:20:00,202.68
2018-09-02,10:30:00,202.67
2018-09-02,10:40:00,202.67
2018-09-02,10:50:00,202.67
2018-09-02,11:00:00,202.67
2018-09-02,11:10:00,202.66
2018-09-02,11:20:00,202.66
2018-09-02,11:30:00,202.66
2018-09-02,11:40:00,202.65
2018-09-02,11:50:00,202.65
2018-09-02,12:00:00,202.65
2018-09-02,12:10:00,202.64
2018-09-02,12:20:00,202.64
2018-09-02,12:30:00,202.63
2018-09-02,12:40:00,202.63
2018-09-02,12:50:00,202.63
2018-09-02,13:00:00,202.62
2018-09-02,13:10:00,202.62
2018-09-02,13:20:00,202.62
2018-09-02,13:30:00,202.61
2018-09-02,13:40:00,202.61
2018-09-02,13:50:00,202.6
2018-09-02,14:00:00,202.6
2018-09-02,14:10:00,202.6
2018-09-02,14:20:00,202.59
2018-09-02,14:30:00,202.59
2018-09-02,14:40:00,202.58
2018-09-02,14:50:00,202.58
2018-09-02,15:00:00,202.58
2018-09-02,15:10:00,202.58
2018-09-02,15:20:00,202.57
2018-09-02,15:30:00,202.57
2018-09-02,15:40:00,202.57
2018-09-02,15:50:00,202.56
2018-09-02,16:00:00,202.56
2018-09-02,16:10:00,202.56
2018-09-02,16:20:00,202.55
2018-09-02,16:30:00,202.55
2018-09-02,16:40:00,202.55
2018-09-02,16:50:00,202.55
2018-09-02,17:00:00,202.54
2018-09-02,17:10:00,202.53
2018-09-02,17:20:00,202.54
2018-09-02,17:30:00,202.54
2018-09-02,17:40:00,202.53
2018-09-02,17:50:00,202.53
2018-09-02,18:00:00,202.53
2018-09-02,18:10:00,202.53
2018-09-02,18:20:00,202.53
2018-09-02,18:30:00,202.52
2018-09-02,18:40:00,202.52
2018-09-02,18:50:00,202.52
2018-09-02,19:00:00,202.52
2018-09-02,19:10:00,202.52
2018-09-02,19:20:00,202.52
2018-09-02,19:30:00,202.51
2018-09-02,19:40:00,202.51
2018-09-02,19:50:00,202.51
2018-09-02,20:00:00,202.51
2018-09-02,20:10:00,202.51
2018-09-02,20:20:00,202.51
2018-09-02,20:30:00,202.5
2018-09-02,20:40:00,202.5
2018-09-02,20:50:00,202.5
2018-09-02,21:00:00,202.5
2018-09-02,21:10:00,202.5
2018-09-02,21:20:00,202.5
2018-09-02,21:30:00,202.5
2018-09-02,21:40:00,202.49
2018-09-02,21:50:00,202.49
2018-09-02,22:00:00,202.49
2018-09-02,22:10:00,202.49
2018-09-02,22:20:00,202.49
2018-09-02,22:30:00,202.49
2018-09-02,22:40:00,202.48
2018-09-02,22:50:00,202.48
2018-09-02,23:00:00,202.48
2018-09-02,23:10:00,202.48
2018-09-02,23:20:00,202.48
2018-09-02,23:30:00,202.48
2018-09-02,23:40:00,202.48
2018-09-02,23:50:00,202.48
2018-09-03,00:00:00,202.47
2018-09-03,00:10:00,202.47
2018-09-03,00:20:00,202.47
2018-09-03,00:30:00,202.47
2018-09-03,00:40:00,202.46
2018-09-03,00:50:00,202.46
2018-09-03,01:00:00,202.46
2018-09-03,01:10:00,202.46
2018-09-03,01:20:00,202.46
2018-09-03,01:30:00,202.46
2018-09-03,01:40:00,202.45
2018-09-03,01:50:00,202.45
2018-09-03,02:00:00,202.45
2018-09-03,02:10:00,202.45
2018-09-03,02:20:00,202.45
2018-09-03,02:30:00,202.44
2018-09-03,02:40:00,202.44
2018-09-03,02:50:00,202.44
2018-09-03,03:00:00,202.44
2018-09-03,03:10:00,202.43
2018-09-03,03:20:00,202.43
2018-09-03,03:30:00,202.43
2018-09-03,03:40:00,202.43
2018-09-03,03:50:00,202.43
2018-09-03,04:00:00,202.42
2018-09-03,04:10:00,202.42
2018-09-03,04:20:00,202.42
2018-09-03,04:30:00,202.42
2018-09-03,04:40:00,202.42
2018-09-03,04:50:00,202.42
2018-09-03,05:00:00,202.41
2018-09-03,05:10:00,202.41
2018-09-03,05:20:00,202.41
2018-09-03,05:30:00,202.41
2018-09-03,05:40:00,202.41
2018-09-03,05:50:00,202.41
2018-09-03,06:00:00,202.4
2018-09-03,06:10:00,202.4
2018-09-03,06:20:00,202.4
2018-09-03,06:30:00,202.4
2018-09-03,06:40:00,202.4
2018-09-03,06:50:00,202.39
2018-09-03,07:00:00,202.39
2018-09-03,07:10:00,202.39
2018-09-03,07:20:00,202.39
2018-09-03,07:30:00,202.38
2018-09-03,07:40:00,202.38
2018-09-03,07:50:00,202.38
2018-09-03,08:00:00,202.38
2018-09-03,08:10:00,202.37
2018-09-03,08:20:00,202.37
2018-09-03,08:30:00,202.37
2018-09-03,08:40:00,202.37
2018-09-03,08:50:00,202.37
2018-09-03,09:00:00,202.37
2018-09-03,09:10:00,202.37
2018-09-03,09:20:00,202.36
2018-09-03,09:30:00,202.36
2018-09-03,09:40:00,202.36
2018-09-03,09:50:00,202.36
2018-09-03,10:00:00,202.36
2018-09-03,10:10:00,202.35
2018-09-03,10:20:00,202.35
2018-09-03,10:30:00,202.35
2018-09-03,10:40:00,202.35
2018-09-03,10:50:00,202.35
2018-09-03,11:00:00,202.34
2018-09-03,11:10:00,202.34
2018-09-03,11:20:00,202.34
2018-09-03,11:30:00,202.34
2018-09-03,11:40:00,202.34
2018-09-03,11:50:00,202.33
2018-09-03,12:00:00,202.33
2018-09-03,12:10:00,202.33
2018-09-03,12:20:00,202.33
2018-09-03,12:30:00,202.33
2018-09-03,12:40:00,202.32
2018-09-03,12:50:00,202.32
2018-09-03,13:00:00,202.32
2018-09-03,13:10:00,202.31
2018-09-03,13:20:00,202.31
2018-09-03,13:30:00,202.31
2018-09-03,13:40:00,202.3
2018-09-03,13:50:00,202.3
2018-09-03,14:00:00,202.3
2018-09-03,14:10:00,202.3
2018-09-03,14:20:00,202.3
2018-09-03,14:30:00,202.3
2018-09-03,14:40:00,202.29
2018-09-03,14:50:00,202.29
2018-09-03,15:00:00,202.29
2018-09-03,15:10:00,202.29
2018-09-03,15:20:00,202.29
2018-09-03,15:30:00,202.28
2018-09-03,15:40:00,202.28
2018-09-03,15:50:00,202.28
2018-09-03,16:00:00,202.28
2018-09-03,16:10:00,202.28
2018-09-03,16:20:00,202.27
2018-09-03,16:30:00,202.27
2018-09-03,16:40:00,202.27
2018-09-03,16:50:00,202.27
2018-09-03,17:00:00,202.27
2018-09-03,17:10:00,202.27
2018-09-03,17:20:00,202.26
2018-09-03,17:30:00,202.26
2018-09-03,17:40:00,202.26
2018-09-03,17:50:00,202.26
2018-09-03,18:00:00,202.26
2018-09-03,18:10:00,202.25
2018-09-03,18:20:00,202.25
2018-09-03,18:30:00,202.25
2018-09-03,18:40:00,202.25
2018-09-03,18:50:00,202.25
2018-09-03,19:00:00,202.25
2018-09-03,19:10:00,202.24
2018-09-03,19:20:00,202.24
2018-09-03,19:30:00,202.24
2018-09-03,19:40:00,202.24
2018-09-03,19:50:00,202.24
2018-09-03,20:00:00,202.24
2018-09-03,20:10:00,202.23
2018-09-03,20:20:00,202.23
2018-09-03,20:30:00,202.23
2018-09-03,20:40:00,202.23
2018-09-03,20:50:00,202.23
2018-09-03,21:00:00,202.23
2018-09-03,21:10:00,202.22
2018-09-03,21:20:00,202.23
2018-09-03,21:30:00,202.22
2018-09-03,21:40:00,202.22
2018-09-03,21:50:00,202.22
2018-09-03,22:00:00,202.22
2018-09-03,22:10:00,202.22
2018-09-03,22:20:00,202.22
2018-09-03,22:30:00,202.22
2018-09-03,22:40:00,202.22
2018-09-03,22:50:00,202.22
2018-09-03,23:00:00,202.22
2018-09-03,23:10:00,202.21
2018-09-03,23:20:00,202.21
2018-09-03,23:30:00,202.21
2018-09-03,23:40:00,202.21
2018-09-03,23:50:00,202.21
2018-09-04,00:00:00,202.21
2018-09-04,00:10:00,202.21
2018-09-04,00:20:00,202.18
2018-09-04,00:30:00,202.2
2018-09-04,00:40:00,202.2
2018-09-04,00:50:00,202.2
2018-09-04,01:00:00,202.2
2018-09-04,01:10:00,202.2
2018-09-04,01:20:00,202.2
2018-09-04,01:30:00,202.19
2018-09-04,01:40:00,202.19
2018-09-04,01:50:00,202.19
2018-09-04,02:00:00,202.19
2018-09-04,02:10:00,202.19
2018-09-04,02:20:00,202.19
2018-09-04,02:30:00,202.19
2018-09-04,02:40:00,202.19
2018-09-04,02:50:00,202.18
2018-09-04,03:00:00,202.18
2018-09-04,03:10:00,202.18
2018-09-04,03:20:00,202.18
2018-09-04,03:30:00,202.18
2018-09-04,03:40:00,202.18
2018-09-04,03:50:00,202.18
2018-09-04,04:00:00,202.18
2018-09-04,04:10:00,202.18
2018-09-04,04:20:00,202.17
2018-09-04,04:30:00,202.17
2018-09-04,04:40:00,202.17
2018-09-04,04:50:00,202.17
2018-09-04,05:00:00,202.17
2018-09-04,05:10:00,202.17
2018-09-04,05:20:00,202.17
2018-09-04,05:30:00,202.16
2018-09-04,05:40:00,202.17
2018-09-04,05:50:00,202.16
2018-09-04,06:00:00,202.16
2018-09-04,06:10:00,202.16
2018-09-04,06:20:00,202.16
2018-09-04,06:30:00,202.16
2018-09-04,06:40:00,202.16
2018-09-04,06:50:00,202.16
2018-09-04,07:00:00,202.16
2018-09-04,07:10:00,202.16
2018-09-04,07:20:00,202.15
2018-09-04,07:30:00,202.16
2018-09-04,07:40:00,202.15
2018-09-04,07:50:00,202.15
2018-09-04,08:00:00,202.15
2018-09-04,08:10:00,202.15
2018-09-04,08:20:00,202.15
2018-09-04,08:30:00,202.15
2018-09-04,08:40:00,202.15
2018-09-04,08:50:00,202.15
2018-09-04,09:00:00,202.15
2018-09-04,09:10:00,202.15
2018-09-04,09:20:00,202.15
2018-09-04,09:30:00,202.15
2018-09-04,09:40:00,202.15
2018-09-04,09:50:00,202.14
2018-09-04,10:00:00,202.14
2018-09-04,10:10:00,202.14
2018-09-04,10:20:00,202.14
2018-09-04,10:30:00,202.14
2018-09-04,10:40:00,202.14
2018-09-04,10:50:00,202.14
2018-09-04,11:00:00,202.14
2018-09-04,11:10:00,202.13
2018-09-04,11:20:00,202.14
2018-09-04,11:30:00,202.14
2018-09-04,11:40:00,202.15
2018-09-04,11:50:00,202.15
2018-09-04,12:00:00,202.15
2018-09-04,12:10:00,202.15
2018-09-04,12:20:00,202.16
2018-09-04,12:30:00,202.16
2018-09-04,12:40:00,202.17
2018-09-04,12:50:00,202.18
2018-09-04,13:00:00,202.18
2018-09-04,13:10:00,202.2
2018-09-04,13:20:00,202.21
2018-09-04,13:30:00,202.22
2018-09-04,13:40:00,202.24
2018-09-04,13:50:00,202.25
2018-09-04,14:00:00,202.26
2018-09-04,14:10:00,202.29
2018-09-04,14:20:00,202.32
2018-09-04,14:30:00,202.34
2018-09-04,14:40:00,202.37
2018-09-04,14:50:00,202.39
2018-09-04,15:00:00,202.42
2018-09-04,15:10:00,202.46
2018-09-04,15:20:00,202.49
2018-09-04,15:30:00,202.53
2018-09-04,15:40:00,202.56
2018-09-04,15:50:00,202.6
2018-09-04,16:00:00,202.64
2018-09-04,16:10:00,202.68
2018-09-04,16:20:00,202.72
2018-09-04,16:30:00,202.75
2018-09-04,16:40:00,202.8
2018-09-04,16:50:00,202.84
2018-09-04,17:00:00,202.88
2018-09-04,17:10:00,202.91
2018-09-04,17:20:00,202.95
2018-09-04,17:30:00,202.99
2018-09-04,17:40:00,203.03
2018-09-04,17:50:00,203.06
2018-09-04,18:00:00,203.1
2018-09-04,18:10:00,203.13
2018-09-04,18:20:00,203.17
2018-09-04,18:30:00,203.19
2018-09-04,18:40:00,203.23
2018-09-04,18:50:00,203.26
2018-09-04,19:00:00,203.29
2018-09-04,19:10:00,203.32
2018-09-04,19:20:00,203.35
2018-09-04,19:30:00,203.38
2018-09-04,19:40:00,203.4
2018-09-04,19:50:00,203.43
2018-09-04,20:00:00,203.46
2018-09-04,20:10:00,203.48
2018-09-04,20:20:00,203.51
2018-09-04,20:30:00,203.53
2018-09-04,20:40:00,203.55
2018-09-04,20:50:00,203.58
2018-09-04,21:00:00,203.6
2018-09-04,21:10:00,203.62
2018-09-04,21:20:00,203.64
2018-09-04,21:30:00,203.66
2018-09-04,21:40:00,203.67
2018-09-04,21:50:00,203.69
2018-09-04,22:00:00,203.73
2018-09-04,22:10:00,203.74
2018-09-04,22:20:00,203.76
2018-09-04,22:30:00,203.78
2018-09-04,22:40:00,203.79
2018-09-04,22:50:00,203.81
2018-09-04,23:00:00,203.82
2018-09-04,23:10:00,203.84
2018-09-04,23:20:00,203.85
2018-09-04,23:30:00,203.87
2018-09-04,23:40:00,203.88
2018-09-04,23:50:00,203.89
2018-09-05,00:00:00,203.9
2018-09-05,00:10:00,203.91
2018-09-05,00:20:00,203.92
2018-09-05,00:30:00,203.93
2018-09-05,00:40:00,203.94
2018-09-05,00:50:00,203.95
2018-09-05,01:00:00,203.96
2018-09-05,01:10:00,203.96
2018-09-05,01:20:00,203.97
2018-09-05,01:30:00,203.98
2018-09-05,01:40:00,203.98
2018-09-05,01:50:00,203.99
2018-09-05,02:00:00,203.99
2018-09-05,02:10:00,204
2018-09-05,02:20:00,204
2018-09-05,02:30:00,204.01
2018-09-05,02:40:00,204.01
2018-09-05,02:50:00,204.01
2018-09-05,03:00:00,204.02
2018-09-05,03:10:00,204.02
2018-09-05,03:20:00,204.02
2018-09-05,03:30:00,204.02
2018-09-05,03:40:00,204.02
2018-09-05,03:50:00,204.03
2018-09-05,04:00:00,204.02
2018-09-05,04:10:00,204.03
2018-09-05,04:20:00,204.02
2018-09-05,04:30:00,204.02
2018-09-05,04:40:00,204.03
2018-09-05,04:50:00,204.03
2018-09-05,05:00:00,204.02
2018-09-05,05:10:00,204.02
2018-09-05,05:20:00,204.02
2018-09-05,05:30:00,204.03
2018-09-05,05:40:00,204.02
2018-09-05,05:50:00,204.03
2018-09-05,06:00:00,204.02
2018-09-05,06:10:00,204.02
2018-09-05,06:20:00,204.02
2018-09-05,06:30:00,204.02
2018-09-05,06:40:00,204.02
2018-09-05,06:50:00,204.02
2018-09-05,07:00:00,204.02
2018-09-05,07:10:00,204.02
2018-09-05,07:20:00,204.02
2018-09-05,07:30:00,204.02
2018-09-05,07:40:00,204.02
2018-09-05,07:50:00,204.02
2018-09-05,08:00:00,204.02
2018-09-05,08:10:00,204.02
2018-09-05,08:20:00,204.02
2018-09-05,08:30:00,204.02
2018-09-05,08:40:00,204.02
2018-09-05,08:50:00,204.02
2018-09-05,09:00:00,204.03
2018-09-05,09:10:00,204.03
2018-09-05,09:20:00,204.03
2018-09-05,09:30:00,204.03
2018-09-05,09:40:00,204.03
2018-09-05,09:50:00,204.04
2018-09-05,10:00:00,204.04
2018-09-05,10:10:00,204.04
2018-09-05,10:20:00,204.05
2018-09-05,10:30:00,204.06
2018-09-05,10:40:00,204.06
2018-09-05,10:50:00,204.06
2018-09-05,11:00:00,204.07
2018-09-05,11:10:00,204.08
2018-09-05,11:20:00,204.08
2018-09-05,11:30:00,204.09
2018-09-05,11:40:00,204.1
2018-09-05,11:50:00,204.11
2018-09-05,12:00:00,204.11
2018-09-05,12:10:00,204.13
2018-09-05,12:20:00,204.14
2018-09-05,12:30:00,204.15
2018-09-05,12:40:00,204.16
2018-09-05,12:50:00,204.17
2018-09-05,13:00:00,204.19
2018-09-05,13:10:00,204.2
2018-09-05,13:20:00,204.21
2018-09-05,13:30:00,204.23
2018-09-05,13:40:00,204.24
2018-09-05,13:50:00,204.26
2018-09-05,14:00:00,204.28
2018-09-05,14:10:00,204.3
2018-09-05,14:20:00,204.31
2018-09-05,14:30:00,204.33
2018-09-05,14:40:00,204.35
2018-09-05,14:50:00,204.37
2018-09-05,15:00:00,204.39
2018-09-05,15:10:00,204.41
2018-09-05,15:20:00,204.44
2018-09-05,15:30:00,204.45
2018-09-05,15:40:00,204.48
2018-09-05,15:50:00,204.5
2018-09-05,16:00:00,204.52
2018-09-05,16:10:00,204.55
2018-09-05,16:20:00,204.57
2018-09-05,16:30:00,204.6
2018-09-05,16:40:00,204.62
2018-09-05,16:50:00,204.65
2018-09-05,17:00:00,204.67
2018-09-05,17:10:00,204.7
2018-09-05,17:20:00,204.72
2018-09-05,17:30:00,204.75
2018-09-05,17:40:00,204.77
2018-09-05,17:50:00,204.8
2018-09-05,18:00:00,204.83
2018-09-05,18:10:00,204.85
2018-09-05,18:20:00,204.88
2018-09-05,18:30:00,204.9
2018-09-05,18:40:00,204.93
2018-09-05,18:50:00,204.96
2018-09-05,19:00:00,204.98
2018-09-05,19:10:00,205.01
2018-09-05,19:20:00,205.03
2018-09-05,19:30:00,205.06
2018-09-05,19:40:00,205.09
2018-09-05,19:50:00,205.11
2018-09-05,20:00:00,205.14
2018-09-05,20:10:00,205.16
2018-09-05,20:20:00,205.19
2018-09-05,20:30:00,205.22
2018-09-05,20:40:00,205.24
2018-09-05,20:50:00,205.26
2018-09-05,21:00:00,205.29
2018-09-05,21:10:00,205.32
2018-09-05,21:20:00,205.34
2018-09-05,21:30:00,205.37
2018-09-05,21:40:00,205.39
2018-09-05,21:50:00,205.42
2018-09-05,22:00:00,205.45
2018-09-05,22:10:00,205.46
2018-09-05,22:20:00,205.49
2018-09-05,22:30:00,205.51
2018-09-05,22:40:00,205.54
2018-09-05,22:50:00,205.56
2018-09-05,23:00:00,205.59
2018-09-05,23:10:00,205.61
2018-09-05,23:20:00,205.63
2018-09-05,23:30:00,205.65
2018-09-05,23:40:00,205.67
2018-09-05,23:50:00,205.69
2018-09-06,00:00:00,205.72
2018-09-06,00:10:00,205.73
2018-09-06,00:20:00,205.76
2018-09-06,00:30:00,205.78
2018-09-06,00:40:00,205.79
2018-09-06,00:50:00,205.82
2018-09-06,01:00:00,205.83
2018-09-06,01:10:00,205.85
2018-09-06,01:20:00,205.87
2018-09-06,01:30:00,205.89
2018-09-06,01:40:00,205.91
2018-09-06,01:50:00,205.93
2018-09-06,02:00:00,205.94
2018-09-06,02:10:00,205.96
2018-09-06,02:20:00,205.98
2018-09-06,02:30:00,205.99
2018-09-06,02:40:00,206.01
2018-09-06,02:50:00,206.03
2018-09-06,03:00:00,206.04
2018-09-06,03:10:00,206.06
2018-09-06,03:20:00,206.07
2018-09-06,03:30:00,206.09
2018-09-06,03:40:00,206.1
2018-09-06,03:50:00,206.12
2018-09-06,04:00:00,206.13
2018-09-06,04:10:00,206.14
2018-09-06,04:20:00,206.16
2018-09-06,04:30:00,206.17
2018-09-06,04:40:00,206.18
2018-09-06,04:50:00,206.2
2018-09-06,05:00:00,206.21
2018-09-06,05:10:00,206.22
2018-09-06,05:20:00,206.23
2018-09-06,05:30:00,206.24
2018-09-06,05:40:00,206.25
2018-09-06,05:50:00,206.26
2018-09-06,06:00:00,206.27
2018-09-06,06:10:00,206.29
2018-09-06,06:20:00,206.3
2018-09-06,06:30:00,206.31
2018-09-06,06:40:00,206.32
2018-09-06,06:50:00,206.33
2018-09-06,07:00:00,206.34
2018-09-06,07:10:00,206.35
2018-09-06,07:20:00,206.35
2018-09-06,07:30:00,206.36
2018-09-06,07:40:00,206.36
2018-09-06,07:50:00,206.38
2018-09-06,08:00:00,206.38
2018-09-06,08:10:00,206.39
2018-09-06,08:20:00,206.4
2018-09-06,08:30:00,206.4
2018-09-06,08:40:00,206.41
2018-09-06,08:50:00,206.42
2018-09-06,09:00:00,206.42
2018-09-06,09:10:00,206.43
2018-09-06,09:20:00,206.44
2018-09-06,09:30:00,206.44
2018-09-06,09:40:00,206.45
2018-09-06,09:50:00,206.45
2018-09-06,10:00:00,206.46
2018-09-06,10:10:00,206.46
2018-09-06,10:20:00,206.46
2018-09-06,10:30:00,206.47
2018-09-06,10:40:00,206.48
2018-09-06,10:50:00,206.48
2018-09-06,11:00:00,206.49
2018-09-06,11:10:00,206.49
2018-09-06,11:20:00,206.49
2018-09-06,11:30:00,206.5
2018-09-06,11:40:00,206.5
2018-09-06,11:50:00,206.5
2018-09-06,12:00:00,206.5
2018-09-06,12:10:00,206.51
2018-09-06,12:20:00,206.51
2018-09-06,12:30:00,206.51
2018-09-06,12:40:00,206.51
2018-09-06,12:50:00,206.51
2018-09-06,13:00:00,206.52
2018-09-06,13:10:00,206.52
2018-09-06,13:20:00,206.52
2018-09-06,13:30:00,206.52
2018-09-06,13:40:00,206.52
2018-09-06,13:50:00,206.53
2018-09-06,14:00:00,206.52
2018-09-06,14:10:00,206.52
2018-09-06,14:20:00,206.52
2018-09-06,14:30:00,206.52
2018-09-06,14:40:00,206.52
2018-09-06,14:50:00,206.52
2018-09-06,15:00:00,206.52
2018-09-06,15:10:00,206.52
2018-09-06,15:20:00,206.52
2018-09-06,15:30:00,206.52
2018-09-06,15:40:00,206.52
2018-09-06,15:50:00,206.52
2018-09-06,16:00:00,206.52
2018-09-06,16:10:00,206.51
2018-09-06,16:20:00,206.51
2018-09-06,16:30:00,206.51
2018-09-06,16:40:00,206.51
2018-09-06,16:50:00,206.51
2018-09-06,17:00:00,206.5
2018-09-06,17:10:00,206.49
2018-09-06,17:20:00,206.49
2018-09-06,17:30:00,206.49
2018-09-06,17:40:00,206.48
2018-09-06,17:50:00,206.48
2018-09-06,18:00:00,206.48
2018-09-06,18:10:00,206.47
2018-09-06,18:20:00,206.47
2018-09-06,18:30:00,206.46
2018-09-06,18:40:00,206.46
2018-09-06,18:50:00,206.45
2018-09-06,19:00:00,206.45
2018-09-06,19:10:00,206.44
2018-09-06,19:20:00,206.43
2018-09-06,19:30:00,206.42
2018-09-06,19:40:00,206.42
2018-09-06,19:50:00,206.41
2018-09-06,20:00:00,206.41
2018-09-06,20:10:00,206.39
2018-09-06,20:20:00,206.39
2018-09-06,20:30:00,206.38
2018-09-06,20:40:00,206.37
2018-09-06,20:50:00,206.37
2018-09-06,21:00:00,206.36
2018-09-06,21:10:00,206.34
2018-09-06,21:20:00,206.34
2018-09-06,21:30:00,206.33
2018-09-06,21:40:00,206.32
2018-09-06,21:50:00,206.3
2018-09-06,22:00:00,206.3
2018-09-06,22:10:00,206.28
2018-09-06,22:20:00,206.27
2018-09-06,22:30:00,206.26
2018-09-06,22:40:00,206.25
2018-09-06,22:50:00,206.24
2018-09-06,23:00:00,206.23
2018-09-06,23:10:00,206.22
2018-09-06,23:20:00,206.2
2018-09-06,23:30:00,206.19
2018-09-06,23:40:00,206.17
2018-09-06,23:50:00,206.16
2018-09-07,00:00:00,206.15
2018-09-07,00:10:00,206.14
2018-09-07,00:20:00,206.12
2018-09-07,00:30:00,206.11
2018-09-07,00:40:00,206.1
2018-09-07,00:50:00,206.08
2018-09-07,01:00:00,206.07
2018-09-07,01:10:00,206.05
2018-09-07,01:20:00,206.03
2018-09-07,01:30:00,206.02
2018-09-07,01:40:00,206
2018-09-07,01:50:00,205.99
2018-09-07,02:00:00,205.97
2018-09-07,02:10:00,205.96
2018-09-07,02:20:00,205.94
2018-09-07,02:30:00,205.92
2018-09-07,02:40:00,205.9
2018-09-07,02:50:00,205.89
2018-09-07,03:00:00,205.87
2018-09-07,03:10:00,205.85
2018-09-07,03:20:00,205.84
2018-09-07,03:30:00,205.82
2018-09-07,03:40:00,205.8
2018-09-07,03:50:00,205.78
2018-09-07,04:00:00,205.76
2018-09-07,04:10:00,205.74
2018-09-07,04:20:00,205.72